Temp_Advection
nan nan nan nan nan nan nan nan nan nan nan nan nan nan nan nan nan nan nan nan nan nan nan nan nan nan nan nan nan nan nan nan nan nan nan nan nan nan nan nan nan nan
nan -0 -0 -0 -0 0 0 0 0 -0 -0 -0 -0 -0 -1 -1 -1 0 -0 -0 -0 -1 -0 -0 -1 -1 -0 0 0 -0 0 1 1 1 -1 -1 0 1 0 1 1 nan
nan -0 -0 -0 -0 -0 -0 -0 0 -0 -0 -0 -0 -0 -1 -1 -1 -0 0 0 -0 -0 -0 -0 -1 -1 -1 -0 0 -0 -0 0 1 1 -1 -1 0 1 1 2 1 nan
nan -0 -0 -0 -0 -0 -0 -0 -0 0 -0 -0 -0 -0 -0 -1 -2 -1 -1 0 0 0 -0 -0 -0 -1 -1 -0 0 -0 -0 0 1 2 -1 -1 0 0 1 2 0 nan
nan -0 -0 -0 -0 -0 -0 -0 -0 -0 -0 -0 -0 -0 0 -0 -1 -1 -1 -1 -0 0 0 0 -0 -0 -1 -0 -0 -0 0 0 1 1 -0 -1 -0 0 1 1 -1 nan
nan -0 -0 -0 0 -0 -0 -0 -0 -0 -0 -0 -0 -0 -0 -0 -0 -0 -1 -1 -1 -0 0 0 -0 -0 -0 -0 -0 -0 0 0 0 1 0 -0 0 1 1 0 -0 nan
nan -0 -0 -0 -0 -0 -0 -0 -0 -0 -0 -0 -0 -0 -0 -0 -0 -0 0 -0 -1 -1 -0 0 -0 -0 -0 -0 -1 -1 -0 0 0 0 -0 0 1 0 -0 1 1 nan
nan 0 0 -0 -0 -0 -0 -0 0 -0 -0 -0 -0 -0 -0 -1 -1 -0 -0 0 -0 -1 -1 -0 0 1 1 -1 -1 -1 -0 0 1 0 -1 0 2 -0 -1 1 2 nan
nan -0 0 0 0 0 0 0 0 0 -0 -0 -0 -0 -0 -0 -1 -0 -0 -0 -0 -1 -2 -1 -0 1 1 -0 -1 -1 -0 -0 0 0 -0 0 1 -0 -0 2 2 nan
nan -0 -0 0 0 0 0 0 0 0 -0 -0 -0 -0 -0 -0 -0 -0 -0 -0 -0 -1 -1 -1 -0 0 0 -0 -0 -0 -0 -0 -0 0 0 -0 -0 -0 1 2 2 nan
nan -1 -1 -0 -0 0 0 0 0 0 0 0 0 -0 -0 -0 -0 -0 -0 -0 -0 -1 -1 -1 -0 -0 -0 -1 0 -0 -0 0 0 0 0 -0 -0 1 2 2 2 nan
nan -1 -1 -1 -0 -0 -0 0 0 0 0 0 0 -0 -0 -0 -0 -0 -0 -0 -0 -0 -1 -1 -0 -0 -1 -1 0 0 0 1 1 0 0 -0 -1 0 2 3 1 nan
nan -1 -1 -1 -1 -1 -1 -0 0 0 0 0 0 -0 0 -0 -0 -0 -0 -0 -0 -0 -0 -0 -0 -1 -2 -1 0 0 0 1 1 1 0 -0 -1 -0 2 3 2 nan
nan -1 -1 -1 -1 -1 -1 -1 0 0 0 0 0 0 0 0 -0 -0 -0 -1 -1 -0 -0 -0 -0 -1 -1 -1 0 0 1 1 1 1 1 0 0 0 1 2 2 nan
nan -1 -1 -1 -1 -2 -2 -1 -0 0 0 0 0 1 1 0 -0 0 -0 -1 -1 -0 0 -0 -0 -1 -0 0 -0 -0 0 0 0 1 0 0 1 1 1 2 2 nan
nan -1 -1 -1 -1 -2 -2 -2 -1 0 0 0 0 1 1 0 0 0 -0 -1 -1 0 0 0 -0 -0 -0 0 -0 -0 1 1 -0 0 0 0 1 1 1 1 1 nan
nan -0 -1 -1 -1 -2 -2 -1 -2 -1 -0 0 1 1 0 0 1 0 -1 -1 -0 0 -0 0 0 -0 -0 -0 -0 0 1 1 0 0 1 1 1 1 1 1 1 nan
nan -0 -0 -0 -1 -1 -1 -1 -1 -1 -1 0 1 0 0 1 1 0 -1 -0 -0 -0 -0 0 0 -0 -1 -1 -0 0 1 1 1 1 1 1 1 1 1 1 1 nan
nan -1 -1 -1 -1 -1 -1 -1 -1 -1 -1 0 0 0 1 1 0 -0 -0 -0 -0 -1 -0 0 0 -0 -1 -0 0 0 1 1 1 1 1 1 1 1 0 0 0 nan
nan -1 -1 -1 -1 -1 -1 -1 -1 -1 -1 -0 -0 0 1 0 0 -0 -0 -0 -0 -1 -0 -0 0 0 -0 -0 0 1 1 1 1 1 1 1 1 0 0 0 1 nan
nan -1 -1 -1 -1 -1 -1 -1 -1 -1 -1 -0 0 1 0 0 -0 -0 -1 -1 -0 -0 -0 -0 -0 0 0 -0 0 1 2 1 1 1 1 1 1 0 0 1 1 nan
nan -1 -1 -1 -1 -1 -1 -1 -1 -1 -0 0 0 0 0 -0 -0 -0 -1 -1 -0 0 -0 -0 -0 -0 0 0 1 1 1 1 0 1 1 1 1 0 0 1 0 nan
nan -1 -1 -1 -2 -1 -1 -1 -0 -0 -0 0 0 0 0 -0 -0 -0 -0 -0 0 0 -0 -0 -0 -0 0 1 1 1 1 0 0 0 0 0 0 0 1 0 0 nan
nan -1 -1 -1 -1 -1 -1 -1 -0 -0 -0 -0 0 0 0 -0 -0 -0 -0 -0 -0 -0 0 -0 -0 0 0 0 1 1 1 0 0 0 -0 0 0 1 1 0 0 nan
nan -0 -0 -0 -1 -1 -0 -0 -0 -0 -0 -0 -0 0 0 -0 -0 -0 -0 -0 -0 -0 0 0 0 0 0 0 1 1 0 -0 -0 -0 0 0 1 1 0 0 0 nan
nan nan nan nan nan nan nan nan nan nan nan nan nan nan nan nan nan nan nan nan nan nan nan nan nan nan nan nan nan nan nan nan nan nan nan nan nan nan nan nan nan nan
Wind_Speed
28 28 27 27 25 24 24 23 23 22 20 20 20 20 20 20 20 19 19 21 23 25 25 25 26 26 26 27 29 32 33 35 36 37 38 39 38 39 41 42 43 43
29 28 28 27 26 25 24 23 23 23 22 20 21 21 20 21 22 22 21 21 22 24 26 26 27 27 27 28 28 30 33 35 37 38 39 39 38 38 40 41 41 42
28 28 28 28 27 26 25 24 24 23 23 22 21 20 21 23 24 24 23 22 22 24 25 26 27 28 28 28 28 29 32 35 37 38 39 38 37 38 40 40 41 42
27 27 27 27 27 26 25 25 24 22 22 22 20 18 19 22 23 24 24 24 23 24 25 26 27 28 28 29 29 30 31 33 35 37 39 38 37 39 39 40 41 42
27 27 27 26 26 26 25 24 24 23 22 21 20 19 19 20 21 22 23 24 25 25 25 25 26 27 28 28 29 30 31 32 34 36 38 39 38 39 39 40 42 41
27 26 26 26 25 25 25 25 24 23 23 22 20 19 18 19 20 21 20 22 24 25 25 25 26 27 27 28 29 31 32 32 33 35 38 39 40 39 40 41 42 41
27 26 25 25 25 25 26 26 24 24 23 23 21 20 19 20 22 21 20 20 21 24 26 26 26 27 27 27 28 30 32 33 33 35 37 39 40 40 41 41 42 42
27 25 25 25 25 25 26 25 24 24 24 24 23 21 20 22 24 22 21 21 19 23 27 28 28 28 28 28 28 30 31 33 34 35 37 38 39 41 42 41 41 43
26 24 25 25 24 25 25 24 24 24 25 25 24 22 21 22 24 22 22 22 21 24 29 29 28 28 28 28 28 29 30 32 35 37 37 37 39 41 42 41 41 43
25 24 24 25 25 25 25 24 24 24 24 24 23 23 22 22 23 23 23 22 21 24 28 28 27 26 26 27 28 29 29 31 33 37 39 38 38 40 41 41 41 43
25 25 25 26 26 26 26 25 24 23 22 22 22 22 22 22 23 23 24 24 23 23 24 25 26 25 26 27 28 29 30 30 31 34 38 40 39 39 40 40 41 43
26 26 27 27 28 28 27 27 26 24 22 21 22 23 23 24 25 25 25 25 25 24 22 24 25 25 27 29 29 30 31 31 31 33 37 39 39 38 39 40 41 43
30 30 29 30 30 32 33 33 29 24 21 21 24 25 26 27 27 28 28 27 26 24 23 23 23 25 28 30 30 30 31 31 32 33 36 38 40 39 39 40 41 42
35 35 35 36 36 38 39 36 31 25 22 23 25 27 28 29 29 29 29 28 26 24 23 23 23 24 28 30 30 30 30 31 32 33 35 38 40 40 40 40 40 41
38 39 40 41 39 38 38 36 32 27 23 23 25 27 29 30 30 29 29 28 26 24 23 24 23 24 27 29 29 29 29 30 32 33 35 37 40 41 41 40 41 41
39 40 40 38 34 33 33 34 32 27 24 23 25 28 29 28 29 29 28 27 26 24 24 25 25 27 29 28 28 30 30 30 32 33 36 38 40 42 42 41 41 41
35 35 33 31 31 30 30 31 29 25 24 26 27 28 29 28 28 28 27 26 26 26 26 26 26 28 29 29 29 29 28 30 33 34 36 39 41 42 43 42 42 42
28 28 27 26 27 27 27 28 26 23 24 27 27 27 28 28 28 27 25 23 24 26 26 26 27 28 29 29 29 28 27 30 35 36 36 39 42 43 44 43 42 42
26 27 28 26 25 24 24 25 25 23 24 26 26 27 28 29 28 26 24 23 24 25 24 24 26 27 28 29 29 31 30 30 35 38 37 39 42 43 44 43 42 41
27 28 30 29 27 25 24 24 23 22 23 23 24 25 26 27 25 23 23 24 25 24 22 23 26 27 28 29 30 33 31 29 34 39 37 38 40 42 42 41 40 39
29 30 31 30 27 25 24 23 22 21 22 23 23 23 23 24 22 21 22 23 22 22 22 24 26 26 27 29 31 31 27 25 32 37 36 35 37 38 38 38 37 36
31 32 32 30 28 27 24 20 19 21 22 22 21 21 21 21 21 20 21 22 21 21 24 26 27 27 27 29 30 26 21 22 29 34 34 32 33 34 35 34 34 33
34 34 34 32 28 25 22 18 18 20 21 21 20 19 19 19 19 20 21 23 23 24 25 27 28 28 27 27 26 21 17 21 27 31 32 30 28 29 30 31 31 30
36 33 31 30 27 22 18 16 17 19 20 19 18 18 18 18 20 22 23 24 24 24 25 26 28 27 25 24 22 16 16 22 26 29 31 29 24 24 26 27 27 26
35 28 25 26 25 21 16 15 18 19 18 17 17 18 20 21 23 23 23 24 24 25 26 26 26 26 24 23 20 15 17 22 26 27 29 30 26 24 24 23 22 23
33 25 22 22 22 19 15 16 18 18 18 19 20 20 20 21 21 22 23 24 25 25 26 25 24 24 24 21 16 15 18 23 26 27 28 30 28 26 24 22 21 21
Wind_Direction
301 300 299 298 296 295 294 293 292 290 288 286 285 286 286 284 281 278 275 272 271 269 269 270 272 272 269 263 260 257 254 252 251 250 250 248 247 248 248 248 247 247
300 300 298 296 295 294 294 293 290 289 287 286 286 286 285 285 284 281 277 273 270 268 267 267 268 269 269 267 263 260 257 254 252 251 250 247 246 247 246 246 246 246
299 299 298 296 295 294 294 292 290 288 287 288 289 287 287 288 284 280 277 276 273 269 267 266 266 267 267 267 265 262 259 256 253 253 252 248 246 246 245 245 245 244
299 299 298 295 294 293 293 292 289 287 285 286 287 284 285 288 285 280 276 274 273 270 268 265 264 265 265 265 264 263 262 259 255 254 253 251 247 245 245 244 244 243
300 299 296 294 293 292 292 291 289 287 284 283 285 284 283 283 283 280 276 273 271 270 268 265 263 262 263 264 263 262 261 260 257 254 253 252 248 245 245 244 243 242
302 301 298 295 293 292 291 290 289 287 286 285 284 284 284 282 280 278 275 273 272 271 269 267 264 262 261 262 262 262 261 259 258 256 253 252 250 247 245 243 242 241
304 303 301 299 296 294 292 291 290 288 287 286 285 284 284 282 281 279 276 274 273 271 269 268 266 264 262 261 261 262 262 260 258 256 254 253 251 249 245 243 243 242
304 304 304 302 300 297 295 293 291 289 288 286 284 283 283 281 280 278 276 275 273 272 272 271 269 267 264 262 261 261 262 262 259 256 255 254 251 249 245 243 243 243
303 303 304 303 302 299 297 295 292 290 289 287 283 282 281 279 277 275 274 273 271 271 273 274 273 271 267 265 263 262 261 262 261 259 257 255 251 249 246 243 243 243
305 304 304 304 304 301 298 296 293 291 288 285 282 280 279 279 277 275 273 271 269 270 272 274 274 273 269 266 265 264 263 262 262 261 260 257 253 251 248 244 243 242
307 305 303 303 304 302 300 297 294 292 289 283 281 281 281 282 280 277 275 272 270 269 270 272 273 272 270 267 264 264 263 262 262 261 260 258 255 252 249 247 244 243
307 307 304 302 302 301 300 298 296 294 290 284 284 287 287 285 283 280 277 275 272 269 267 269 270 269 270 269 266 266 264 264 264 261 258 256 254 251 249 247 245 243
307 307 304 302 301 299 300 299 297 292 287 285 289 293 292 288 287 283 279 276 274 270 266 265 266 265 267 269 268 268 267 266 267 265 260 256 252 249 248 246 243 242
304 303 302 301 299 298 298 297 294 288 284 287 292 295 294 291 290 286 281 278 274 270 266 263 263 262 266 269 270 271 272 269 268 266 263 258 252 247 245 244 242 239
301 300 300 299 296 293 292 291 291 286 282 287 291 293 292 290 289 286 282 277 272 270 268 264 263 262 265 271 275 278 278 273 269 266 261 258 252 246 242 241 239 236
300 299 299 296 290 286 285 286 288 285 281 285 290 292 290 289 288 284 280 277 272 269 268 265 265 266 268 275 282 284 281 274 269 264 258 255 250 244 240 237 235 234
299 299 298 295 289 284 280 280 283 282 282 284 288 292 293 290 287 283 280 277 270 268 268 266 267 270 276 281 283 283 280 272 268 264 257 251 246 241 238 235 232 231
305 306 302 298 294 287 279 278 280 280 280 279 281 290 294 290 287 285 281 273 268 270 272 269 268 272 277 281 281 280 277 269 264 261 255 248 242 237 234 233 231 230
312 313 308 303 300 293 284 280 278 279 282 281 281 288 292 289 287 286 279 272 272 277 277 274 275 277 279 282 283 283 279 264 254 252 250 244 238 233 231 231 229 228
312 311 309 306 303 299 290 282 280 282 288 288 285 286 288 287 286 280 273 274 278 279 278 277 278 281 285 287 286 284 278 260 245 243 243 241 236 232 230 230 229 227
313 311 311 311 311 308 297 285 284 290 293 293 288 285 286 285 283 276 274 280 284 281 279 279 278 282 288 290 289 285 275 254 239 237 237 237 236 232 230 231 230 228
315 313 315 318 318 317 308 293 289 292 293 292 289 287 286 282 277 274 279 288 289 284 283 280 278 283 289 291 290 283 264 240 233 233 232 233 233 230 230 230 230 228
316 313 315 318 319 318 311 296 289 291 293 294 293 289 283 277 276 281 288 292 289 283 282 282 282 285 289 289 286 274 244 227 229 229 228 229 231 229 228 228 228 227
320 314 311 314 317 316 308 298 297 298 298 298 293 285 280 282 291 297 297 293 288 282 280 282 285 288 288 286 280 259 224 220 225 226 225 227 227 225 224 225 225 224
328 322 316 315 317 317 312 306 307 305 302 299 295 290 290 295 302 304 301 297 294 291 288 286 285 284 285 284 273 240 212 216 222 223 223 224 222 218 215 216 217 218
334 328 323 321 320 320 315 308 307 307 307 307 306 303 301 303 306 306 303 301 299 296 292 288 282 280 281 279 258 217 205 215 219 219 220 220 219 215 209 206 208 209
Height
1396 1394 1392 1390 1387 1385 1384 1382 1380 1378 1377 1376 1375 1374 1373 1372 1371 1370 1370 1369 1369 1369 1370 1370 1370 1371 1371 1371 1371 1370 1370 1370 1370 1371 1372 1373 1375 1377 1378 1380 1382 1384
1392 1390 1388 1386 1383 1381 1380 1378 1376 1374 1373 1372 1371 1370 1369 1368 1367 1366 1365 1365 1365 1365 1365 1366 1366 1367 1366 1367 1366 1366 1365 1365 1365 1366 1366 1367 1370 1372 1373 1375 1377 1379
1388 1386 1384 1381 1379 1377 1375 1374 1372 1370 1369 1367 1366 1365 1364 1363 1363 1362 1361 1361 1361 1360 1361 1362 1362 1362 1362 1362 1362 1361 1361 1361 1361 1362 1361 1362 1364 1366 1368 1370 1372 1373
1384 1382 1380 1377 1375 1373 1371 1369 1368 1366 1365 1363 1362 1361 1360 1359 1358 1358 1357 1357 1357 1357 1357 1357 1357 1358 1358 1357 1357 1356 1356 1356 1356 1357 1357 1357 1359 1360 1363 1365 1366 1367
1380 1378 1376 1374 1371 1370 1368 1366 1364 1362 1361 1359 1358 1357 1356 1355 1354 1354 1354 1354 1353 1353 1353 1353 1353 1353 1353 1353 1353 1352 1351 1351 1351 1352 1352 1352 1353 1355 1358 1360 1360 1362
1376 1374 1372 1370 1368 1366 1364 1362 1360 1358 1356 1355 1353 1352 1351 1351 1350 1350 1350 1349 1349 1349 1348 1348 1348 1348 1348 1348 1348 1347 1347 1346 1346 1347 1347 1347 1348 1350 1353 1355 1356 1357
1371 1369 1367 1365 1363 1362 1359 1358 1356 1354 1352 1351 1349 1348 1347 1346 1346 1345 1345 1345 1344 1344 1343 1343 1342 1342 1343 1343 1343 1343 1342 1342 1342 1342 1342 1342 1344 1345 1347 1349 1351 1353
1367 1365 1363 1361 1359 1357 1355 1353 1352 1350 1349 1347 1345 1344 1344 1343 1342 1341 1341 1340 1339 1338 1337 1337 1337 1337 1337 1338 1338 1338 1338 1338 1337 1337 1337 1338 1339 1340 1341 1345 1347 1348
1363 1361 1359 1357 1355 1353 1351 1350 1348 1346 1345 1343 1341 1341 1340 1339 1338 1337 1337 1336 1335 1334 1332 1332 1332 1332 1333 1333 1333 1334 1333 1333 1333 1332 1332 1333 1334 1335 1336 1340 1342 1344
1359 1358 1356 1354 1352 1350 1348 1346 1345 1343 1341 1339 1338 1337 1336 1335 1334 1333 1333 1332 1331 1330 1329 1328 1328 1328 1328 1328 1328 1329 1329 1328 1328 1328 1328 1328 1329 1330 1332 1335 1337 1339
1356 1354 1352 1350 1349 1347 1344 1343 1341 1339 1337 1335 1334 1333 1332 1331 1330 1329 1329 1328 1327 1326 1325 1325 1324 1324 1324 1323 1323 1324 1323 1323 1323 1323 1323 1323 1324 1326 1328 1330 1332 1333
1352 1350 1348 1346 1345 1343 1341 1339 1337 1335 1333 1331 1330 1329 1327 1327 1326 1325 1325 1324 1323 1322 1322 1321 1320 1320 1319 1319 1319 1318 1318 1318 1318 1318 1318 1318 1319 1320 1323 1325 1326 1327
1346 1345 1343 1341 1340 1338 1336 1334 1332 1331 1329 1327 1325 1324 1323 1322 1321 1321 1320 1319 1319 1318 1318 1317 1316 1316 1315 1314 1314 1314 1313 1313 1313 1312 1313 1313 1313 1315 1317 1319 1321 1322
1341 1339 1336 1335 1334 1332 1331 1329 1328 1326 1325 1323 1322 1320 1319 1318 1317 1317 1316 1315 1315 1314 1313 1313 1312 1311 1310 1309 1309 1309 1308 1308 1307 1307 1307 1308 1308 1310 1311 1313 1315 1317
1335 1333 1330 1328 1326 1325 1324 1323 1322 1321 1320 1319 1318 1317 1316 1315 1314 1313 1312 1311 1310 1310 1309 1308 1307 1306 1305 1305 1304 1304 1303 1303 1302 1302 1302 1302 1303 1305 1306 1307 1309 1312
1330 1327 1324 1322 1320 1319 1318 1317 1316 1316 1315 1314 1313 1313 1312 1310 1310 1309 1308 1306 1306 1306 1304 1303 1302 1301 1300 1301 1300 1299 1298 1298 1297 1296 1297 1297 1298 1299 1301 1302 1304 1306
1325 1322 1319 1317 1315 1313 1312 1312 1311 1311 1310 1310 1309 1308 1307 1306 1305 1304 1303 1302 1302 1301 1299 1298 1297 1296 1296 1296 1296 1295 1294 1292 1291 1291 1291 1291 1292 1293 1295 1297 1299 1302
1322 1319 1316 1313 1311 1309 1308 1307 1307 1306 1306 1305 1304 1303 1302 1302 1301 1299 1298 1298 1297 1295 1294 1293 1292 1292 1291 1291 1290 1289 1289 1287 1285 1284 1285 1286 1286 1287 1289 1292 1295 1298
1318 1315 1312 1310 1308 1306 1304 1304 1303 1302 1301 1301 1300 1299 1298 1297 1296 1295 1293 1293 1291 1290 1289 1288 1287 1287 1286 1286 1285 1284 1283 1282 1279 1278 1279 1280 1281 1282 1284 1287 1290 1294
1315 1312 1309 1307 1304 1303 1301 1300 1299 1298 1297 1297 1296 1295 1294 1293 1291 1290 1289 1288 1287 1286 1285 1283 1282 1282 1281 1280 1280 1278 1277 1276 1274 1273 1274 1276 1277 1279 1281 1283 1287 1290
1312 1309 1306 1303 1300 1298 1297 1296 1295 1295 1294 1293 1292 1291 1290 1289 1287 1286 1285 1283 1283 1282 1281 1279 1278 1277 1276 1275 1274 1272 1271 1271 1270 1269 1271 1273 1274 1276 1279 1281 1284 1288
1309 1305 1302 1299 1296 1294 1293 1292 1292 1291 1290 1289 1288 1287 1286 1285 1283 1282 1280 1279 1278 1278 1277 1275 1273 1272 1271 1270 1269 1267 1266 1266 1266 1266 1268 1270 1272 1274 1276 1279 1282 1285
1305 1302 1299 1296 1293 1291 1290 1290 1289 1288 1287 1286 1284 1283 1282 1281 1279 1278 1277 1275 1274 1274 1272 1270 1268 1268 1267 1265 1264 1262 1262 1263 1263 1264 1266 1268 1270 1272 1274 1277 1280 1283
1301 1298 1295 1293 1291 1289 1288 1287 1286 1285 1284 1282 1281 1280 1278 1277 1275 1274 1273 1271 1270 1269 1268 1266 1264 1263 1262 1261 1259 1259 1259 1260 1260 1262 1264 1266 1268 1271 1273 1275 1278 1281
1297 1294 1291 1290 1288 1287 1286 1285 1284 1282 1281 1279 1278 1277 1275 1274 1272 1270 1269 1267 1266 1264 1263 1262 1260 1259 1258 1257 1255 1255 1257 1257 1258 1260 1262 1264 1266 1269 1271 1274 1276 1279
1293 1290 1288 1286 1285 1284 1283 1282 1281 1280 1278 1277 1275 1273 1272 1270 1269 1267 1265 1263 1262 1260 1258 1257 1256 1254 1254 1253 1252 1252 1254 1255 1256 1258 1260 1262 1265 1267 1270 1272 1275 1277